DW8266 Weather Reports


Display with metric or nautical units.
time (UTC)temp
F
wind
direction
speed
MPH
gust
MPH
rain 1hr
in
rain 24hr
in
rain mn
in
humidity
%
barometer
mb
20180624144003 85 163 3.0 9.0 0.00 0.00 0.00 81 1011.4
20180624143820 85 146 3.0 9.0 0.00 0.00 0.00 80 1010.4
20180624142812 84 174 4.0 12.0 0.00 0.00 0.00 81 1010.7
20180624142454 84 195 3.0 12.0 0.00 0.00 0.00 82 1011.6
20180624141807 84 156 4.0 11.0 0.00 0.00 0.00 82 1010.6
20180624140920 83 169 3.0 9.0 0.00 0.00 0.00 82 1011.5
20180624140744 83 164 4.0 11.0 0.00 0.00 0.00 83 1010.6
20180624135745 83 188 3.0 9.0 0.00 0.00 0.00 83 1010.4
20180624135408 82 197 3.0 7.0 0.00 0.00 0.00 82 1011.1
20180624134725 82 172 3.0 8.0 0.00 0.00 0.00 82 1010.2
20180624133910 81 161 2.0 6.0 0.00 0.00 0.00 82 1011.2
20180624133726 82 148 2.0 7.0 0.00 0.00 0.00 82 1010.2
20180624132725 81 119 1.0 4.0 0.00 0.00 0.00 80 1010.2
20180624132353 80 142 1.0 4.0 0.00 0.00 0.00 80 1011.1
20180624131706 80 176 1.0 4.0 0.00 0.00 0.00 79 1010.3
20180624130844 79 139 1.0 4.0 0.00 0.00 0.00 79 1011.0
20180624130703 79 127 0.0 4.0 0.00 0.00 0.00 79 1010.1
20180624125705 79 153 1.0 5.0 0.00 0.00 0.00 79 1010.2
20180624125334 78 153 0.0 6.0 0.00 0.00 0.00 79 1011.0
20180624124645 78 158 1.0 6.0 0.00 0.00 0.00 80 1009.9
20180624123757 78 153 0.0 2.0 0.00 0.00 0.00 79 1010.8
20180624123644 78 153 0.0 2.0 0.00 0.00 0.00 79 1010.0
20180624122640 78 153 0.0 0.0 0.00 0.00 0.00 80 1010.1
20180624122249 77 153 0.0 0.0 0.00 0.00 0.00 80 1010.9
20180624121640 78 153 0.0 0.0 0.00 0.00 0.00 80 1010.0
20180624120801 77 153 0.0 0.0 0.00 0.00 0.00 80 1010.9
20180624120622 78 153 0.0 0.0 0.00 0.00 0.00 80 1010.2
20180624115602 78 153 0.0 0.0 0.00 0.00 0.00 80 1010.1
20180624115230 77 153 0.0 0.0 0.00 0.00 0.00 80 1011.0
20180624114555 78 153 0.0 0.0 0.00 0.00 0.00 80 1010.1
20180624113804 77 153 0.0 0.0 0.00 0.00 0.00 80 1011.0
20180624113553 78 153 0.0 0.0 0.00 0.00 0.00 80 1010.1
20180624112551 78 153 0.0 0.0 0.00 0.00 0.00 80 1010.0
20180624112217 77 153 0.0 0.0 0.00 0.00 0.00 80 1010.9
20180624111549 78 153 0.0 0.0 0.00 0.00 0.00 80 1010.0
20180624110740 78 153 0.0 0.0 0.00 0.00 0.00 80 1010.9
20180624110549 78 153 0.0 0.0 0.00 0.00 0.00 80 1010.1
20180624105542 78 153 0.0 0.0 0.00 0.00 0.00 80 1010.5
20180624105155 78 153 0.0 0.0 0.00 0.00 0.00 80 1011.3
20180624104531 78 153 0.0 0.0 0.00 0.00 0.00 80 1010.3
20180624103707 78 153 0.0 0.0 0.00 0.00 0.00 80 1011.1
20180624103526 78 153 0.0 0.0 0.00 0.00 0.00 80 1010.2
20180624102506 78 153 0.0 0.0 0.00 0.00 0.00 80 1010.3
20180624102141 78 153 0.0 0.0 0.00 0.00 0.00 80 1011.2
20180624101502 78 153 0.0 0.0 0.00 0.00 0.00 81 1010.3
20180624100610 78 153 0.0 0.0 0.00 0.00 0.00 81 1011.1
20180624100500 78 153 0.0 0.0 0.00 0.00 0.00 81 1010.2
20180624095501 78 153 0.0 0.0 0.00 0.00 0.00 81 1010.1
20180624095135 78 153 0.0 0.0 0.00 0.00 0.00 81 1011.1
20180624094443 78 153 0.0 0.0 0.00 0.00 0.00 81 1010.3
20180624093630 78 153 0.0 0.0 0.00 0.00 0.00 81 1011.2
20180624093413 78 153 0.0 0.0 0.00 0.00 0.00 81 1010.4
20180624092411 78 153 0.0 0.0 0.00 0.00 0.00 81 1010.2
20180624092029 78 153 0.0 0.0 0.00 0.00 0.00 81 1011.0
20180624091410 78 153 0.0 0.0 0.00 0.00 0.00 81 1010.2
20180624090550 78 153 0.0 0.0 0.00 0.00 0.00 81 1010.9
20180624090411 78 153 0.0 0.0 0.00 0.00 0.00 81 1010.0
20180624085348 78 153 0.0 0.0 0.00 0.00 0.00 81 1010.1
20180624085107 78 153 0.0 0.0 0.00 0.00 0.00 81 1011.0
20180624084346 78 153 0.0 0.0 0.00 0.00 0.00 81 1010.3
20180624083533 78 153 0.0 2.0 0.00 0.00 0.00 81 1011.4
20180624083344 79 153 0.0 2.0 0.00 0.00 0.00 81 1010.5
20180624082343 79 153 0.0 1.0 0.00 0.00 0.00 81 1010.5
20180624081958 78 153 0.0 0.0 0.00 0.00 0.00 81 1011.4
20180624081343 79 153 0.0 2.0 0.00 0.00 0.00 81 1010.4
20180624080505 78 153 0.0 3.0 0.00 0.00 0.00 81 1011.3
20180624080321 79 153 1.0 3.0 0.00 0.00 0.00 81 1010.4
20180624075301 79 153 0.0 3.0 0.00 0.00 0.00 82 1010.4
20180624074930 78 150 1.0 3.0 0.00 0.00 0.00 82 1011.3
20180624074237 79 144 0.0 3.0 0.00 0.00 0.00 82 1010.4
20180624073458 79 131 0.0 4.0 0.00 0.00 0.00 82 1011.3
20180624073227 79 130 1.0 4.0 0.00 0.00 0.00 82 1010.5
20180624072226 79 134 0.0 3.0 0.00 0.00 0.00 82 1010.4
20180624071940 79 115 0.0 2.0 0.00 0.00 0.00 82 1011.3
20180624071227 79 115 0.0 2.0 0.00 0.00 0.00 82 1010.6
20180624070443 79 146 0.0 0.0 0.00 0.00 0.00 82 1011.6
20180624070226 79 146 0.0 1.0 0.00 0.00 0.00 82 1010.8
20180624065229 79 146 0.0 2.0 0.00 0.00 0.00 82 1010.8
20180624064839 79 146 0.0 2.0 0.00 0.00 0.00 82 1011.7
20180624064211 80 146 0.0 2.0 0.00 0.00 0.00 82 1010.8
20180624063413 79 146 0.0 2.0 0.00 0.00 0.00 82 1011.9
20180624063205 80 146 0.0 2.0 0.00 0.00 0.00 82 1011.0
20180624062207 80 146 0.0 3.0 0.00 0.00 0.00 82 1010.6
20180624061836 79 146 0.0 3.0 0.00 0.00 0.00 82 1011.5
20180624061148 80 147 1.0 3.0 0.00 0.00 0.00 82 1010.5
20180624060400 80 145 1.0 3.0 0.00 0.00 0.00 83 1011.3
20180624060127 80 130 0.0 3.0 0.00 0.00 0.00 83 1010.4
20180624055118 80 148 1.0 4.0 0.00 0.00 0.00 83 1010.3
20180624054842 80 145 0.0 4.0 0.00 0.00 0.00 83 1011.1
20180624054121 80 135 1.0 4.0 0.00 0.00 0.00 83 1010.3
20180624053306 80 148 1.0 5.0 0.00 0.00 0.00 83 1011.0
20180624053119 80 147 1.0 5.0 0.00 0.00 0.00 83 1010.1
20180624052056 80 148 1.0 4.0 0.00 0.00 0.00 83 1009.7
20180624051828 80 157 0.0 4.0 0.00 0.00 0.00 83 1010.6
20180624051035 80 133 2.0 6.0 0.00 0.00 0.00 83 1009.8
20180624050259 80 146 1.0 6.0 0.00 0.00 0.00 83 1010.6
20180624050016 81 155 1.0 6.0 0.00 0.00 0.00 83 1009.7
20180624045003 81 130 1.0 7.0 0.00 0.00 0.00 83 1009.5
20180624044726 80 155 1.0 7.0 0.00 0.00 0.00 83 1010.5
20180624044004 81 148 2.0 6.0 0.00 0.00 0.00 83 1009.4
20180624043217 80 141 0.0 4.0 0.00 0.00 0.00 83 1010.1
20180624043003 81 150 1.0 5.0 0.00 0.00 0.00 83 1009.2
20180624042004 81 155 1.0 4.0 0.00 0.00 0.00 83 1009.2
20180624041733 80 148 1.0 4.0 0.00 0.00 0.00 83 1010.1
20180624040955 81 147 1.0 4.0 0.00 0.00 0.00 83 1009.2
20180624040215 81 136 1.0 4.0 0.00 0.00 0.00 83 1009.9
20180624035954 81 150 1.0 4.0 0.00 0.00 0.00 83 1009.0
20180624034950 81 138 1.0 4.0 0.00 0.00 0.00 83 1009.0
20180624034706 81 125 0.0 4.0 0.00 0.00 0.00 83 1010.0
20180624033949 81 142 1.0 4.0 0.00 0.00 0.00 83 1009.1
20180624033126 81 141 0.0 2.0 0.00 0.00 0.00 83 1009.8
20180624032946 81 138 0.0 3.0 0.00 0.00 0.00 83 1008.9
20180624031932 82 173 1.0 5.0 0.00 0.00 0.00 83 1008.7
20180624031656 81 155 1.0 5.0 0.00 0.00 0.00 83 1009.6
20180624030934 82 148 2.0 7.0 0.00 0.00 0.00 83 1008.7
20180624030107 81 142 3.0 7.0 0.00 0.00 0.00 83 1009.4
20180624025925 82 150 1.0 5.0 0.00 0.00 0.00 83 1008.5
20180624024917 82 110 1.0 4.0 0.00 0.00 0.00 83 1008.5
20180624024632 82 130 0.0 4.0 0.00 0.00 0.00 83 1009.2
20180624023907 82 151 1.0 4.0 0.00 0.00 0.00 83 1008.4
20180624023127 82 139 1.0 5.0 0.00 0.00 0.00 83 1009.1
20180624022846 83 159 1.0 5.0 0.00 0.00 0.00 83 1008.2
20180624021823 83 129 1.0 6.0 0.00 0.00 0.00 82 1008.2
20180624021545 82 159 0.0 6.0 0.00 0.00 0.00 82 1009.0
20180624020803 83 131 1.0 5.0 0.00 0.00 0.00 82 1008.1
20180624020100 83 154 0.0 3.0 0.00 0.00 0.00 82 1008.8
20180624015805 84 146 0.0 2.0 0.00 0.00 0.00 81 1008.0
20180624014803 84 152 2.0 6.0 0.00 0.00 0.00 81 1008.1
20180624014529 83 151 1.0 6.0 0.00 0.00 0.00 80 1008.9
20180624013803 84 160 2.0 6.0 0.00 0.00 0.00 80 1008.0
20180624013104 84 159 3.0 8.0 0.00 0.00 0.00 80 1008.6
20180624012805 84 106 4.0 8.0 0.00 0.00 0.00 79 1007.7
20180624011803 85 131 4.0 9.0 0.00 0.00 0.00 79 1007.7
20180624011526 84 168 3.0 8.0 0.00 0.00 0.00 79 1008.6
20180624010751 85 139 4.0 11.0 0.00 0.00 0.00 78 1007.7
20180624010029 85 146 3.0 8.0 0.00 0.00 0.00 77 1008.5
20180624005746 86 128 4.0 8.0 0.00 0.00 0.00 77 1007.6
20180624004733 86 157 3.0 9.0 0.00 0.00 0.00 76 1007.7
20180624004448 86 151 4.0 9.0 0.00 0.00 0.00 76 1008.5
20180624003737 86 153 3.0 7.0 0.00 0.00 0.00 76 1007.5
20180624003002 86 138 2.0 8.0 0.00 0.00 0.00 75 1008.3
20180624002716 87 155 4.0 10.0 0.00 0.00 0.00 74 1007.5
20180624001707 87 161 4.0 8.0 0.00 0.00 0.00 73 1007.5
20180624001437 87 131 5.0 8.0 0.00 0.00 0.00 72 1008.3
20180624000706 88 157 3.0 10.0 0.00 0.00 0.00 72 1007.5
20180623235928 88 141 3.0 7.0 0.00 0.00 0.00 72 1008.4
20180623235706 88 140 3.0 9.0 0.00 0.00 0.00 72 1007.7
20180623234706 89 154 4.0 9.0 0.00 0.00 0.00 69 1007.7
20180623234355 89 157 4.0 9.0 0.00 0.00 0.00 70 1008.5
20180623233703 89 155 3.0 8.0 0.00 0.00 0.00 71 1007.5
20180623232849 88 157 3.0 10.0 0.00 0.00 0.00 70 1008.5
20180623232704 89 166 3.0 10.0 0.00 0.00 0.00 70 1007.6
20180623231706 90 164 4.0 11.0 0.00 0.00 0.00 69 1007.7
20180623231425 90 157 4.0 11.0 0.00 0.00 0.00 68 1008.5
20180623230645 91 130 4.0 11.0 0.00 0.00 0.00 69 1007.6
20180623225824 90 132 3.0 9.0 0.00 0.00 0.00 67 1008.5
20180623225642 91 144 5.0 9.0 0.00 0.00 0.00 67 1007.7
20180623224639 91 155 4.0 10.0 0.00 0.00 0.00 66 1007.8
20180623224358 90 137 4.0 10.0 0.00 0.00 0.00 67 1008.6
20180623223640 91 138 3.0 8.0 0.00 0.00 0.00 67 1007.8
20180623222821 91 146 2.0 8.0 0.00 0.00 0.00 68 1008.7
20180623222627 92 103 4.0 8.0 0.00 0.00 0.00 67 1007.9
20180623221623 91 175 4.0 9.0 0.00 0.00 0.00 68 1008.0
20180623221238 90 147 3.0 8.0 0.00 0.00 0.00 67 1008.8
20180623220600 90 158 5.0 11.0 0.00 0.00 0.00 65 1008.0
20180623215720 91 171 3.0 12.0 0.00 0.00 0.00 68 1008.8
20180623215601 91 173 5.0 12.0 0.00 0.00 0.00 66 1008.0
20180623214558 92 76 5.0 11.0 0.00 0.00 0.00 67 1008.0
20180623214227 91 173 4.0 10.0 0.00 0.00 0.00 67 1008.9
20180623213557 92 155 4.0 10.0 0.00 0.00 0.00 66 1008.2
20180623212735 91 139 2.0 9.0 0.00 0.00 0.00 67 1009.1
20180623212557 92 96 4.0 10.0 0.00 0.00 0.00 67 1008.3
20180623211557 92 113 5.0 9.0 0.00 0.00 0.00 68 1008.3
20180623211228 91 174 5.0 9.0 0.00 0.00 0.00 67 1009.1
20180623210540 91 126 4.0 12.0 0.00 0.00 0.00 69 1008.3
20180623205710 89 175 4.0 11.0 0.00 0.00 0.00 69 1009.2
20180623205538 90 134 5.0 11.0 0.00 0.00 0.00 68 1008.3
20180623204536 91 169 5.0 10.0 0.00 0.00 0.00 69 1008.6
20180623204137 91 142 5.0 10.0 0.00 0.00 0.00 67 1009.3
20180623203537 91 152 5.0 10.0 0.00 0.00 0.00 69 1008.5
20180623202713 90 165 5.0 10.0 0.00 0.00 0.00 67 1009.4
20180623202540 91 158 5.0 11.0 0.00 0.00 0.00 67 1008.5
20180623201533 91 157 5.0 12.0 0.00 0.00 0.00 69 1008.7
20180623201135 90 170 4.0 12.0 0.00 0.00 0.00 68 1009.5
20180623200536 91 162 6.0 11.0 0.00 0.00 0.00 69 1008.7
20180623195656 91 175 4.0 13.0 0.00 0.00 0.00 67 1009.7
20180623195516 91 128 5.0 13.0 0.00 0.00 0.00 66 1008.8
20180623194451 91 162 4.0 10.0 0.00 0.00 0.00 69 1008.9
20180623194121 91 160 4.0 10.0 0.00 0.00 0.00 71 1009.8
20180623193430 91 161 4.0 9.0 0.00 0.00 0.00 68 1009.1
20180623192605 90 96 2.0 10.0 0.00 0.00 0.00 71 1010.0
20180623192417 90 132 4.0 10.0 0.00 0.00 0.00 71 1009.2
20180623191418 91 71 4.0 9.0 0.00 0.00 0.00 69 1009.3
20180623191124 91 170 4.0 10.0 0.00 0.00 0.00 67 1010.2
20180623190416 91 83 4.0 12.0 0.00 0.00 0.00 68 1009.3
20180623185559 90 99 3.0 12.0 0.00 0.00 0.00 70 1010.3
20180623185413 90 140 6.0 12.0 0.00 0.00 0.00 69 1009.5
20180623184413 90 184 5.0 12.0 0.00 0.00 0.00 68 1009.6
20180623184020 90 185 5.0 12.0 0.00 0.00 0.00 69 1010.5
20180623183412 90 170 7.0 14.0 0.00 0.00 0.00 68 1009.6
20180623182451 90 167 7.0 15.0 0.00 0.00 0.00 69 1010.4
20180623182409 90 211 7.0 15.0 0.00 0.00 0.00 68 1009.5
20180623181405 90 226 6.0 14.0 0.00 0.00 0.00 69 1009.7
20180623181014 90 210 5.0 17.0 0.00 0.00 0.00 70 1010.6
20180623180337 90 205 6.0 17.0 0.00 0.00 0.00 69 1009.9
20180623175444 90 195 8.0 14.0 0.00 0.00 0.00 69 1010.8
20180623175336 90 224 6.0 14.0 0.00 0.00 0.00 67 1010.0
20180623174337 90 155 6.0 12.0 0.00 0.00 0.00 70 1010.1
20180623174009 89 214 7.0 11.0 0.00 0.00 0.00 68 1010.9
20180623173315 90 150 5.0 12.0 0.00 0.00 0.00 70 1010.1
20180623172452 89 157 3.0 11.0 0.00 0.00 0.00 72 1011.1
20180623172314 89 174 4.0 12.0 0.00 0.00 0.00 71 1010.2
20180623171314 89 180 6.0 11.0 0.00 0.00 0.00 70 1010.4
20180623170906 89 91 5.0 11.0 0.00 0.00 0.00 72 1011.2
20180623170308 88 214 6.0 12.0 0.00 0.00 0.00 74 1010.3
20180623165433 89 208 5.0 12.0 0.00 0.00 0.00 72 1011.2
20180623165308 89 138 6.0 12.0 0.00 0.00 0.00 71 1010.4
20180623164305 89 193 6.0 11.0 0.00 0.00 0.00 71 1010.4
20180623163915 88 173 5.0 12.0 0.00 0.00 0.00 74 1011.3
20180623163306 88 198 6.0 13.0 0.00 0.00 0.00 73 1010.4
20180623162404 88 179 6.0 13.0 0.00 0.00 0.00 72 1011.3
20180623162237 88 197 5.0 11.0 0.00 0.00 0.00 73 1010.3
20180623161240 88 163 6.0 15.0 0.00 0.00 0.00 74 1010.3
20180623160759 87 173 6.0 15.0 0.00 0.00 0.00 74 1011.1
20180623160216 87 205 4.0 11.0 0.00 0.00 0.00 77 1010.1
20180623155259 86 203 3.0 10.0 0.00 0.00 0.00 79 1011.0
20180623155217 86 189 3.0 10.0 0.00 0.00 0.00 79 1010.2
20180623154158 85 210 5.0 13.0 0.00 0.00 0.00 79 1010.2
20180623153735 84 184 5.0 12.0 0.00 0.00 0.00 79 1011.0
20180623153155 85 200 6.0 12.0 0.00 0.00 0.00 80 1010.1
20180623152309 85 198 7.0 15.0 0.00 0.00 0.00 78 1010.8
20180623152153 85 210 6.0 15.0 0.00 0.00 0.00 79 1010.0
20180623151154 85 229 5.0 11.0 0.00 0.00 0.00 80 1010.3
20180623150758 85 179 4.0 11.0 0.00 0.00 0.00 80 1011.1
20180623150155 85 208 5.0 12.0 0.00 0.00 0.00 81 1010.4
20180623145222 84 211 4.0 7.0 0.00 0.00 0.00 82 1011.5
20180623145145 84 177 3.0 11.0 0.00 0.00 0.00 82 1010.7